TimeCDT,TemperatureF,Dew PointF,Humidity,Sea Level PressureIn,VisibilityMPH,Wind Direction,Wind SpeedMPH,Gust SpeedMPH,PrecipitationIn,Events,Conditions,WindDirDegrees,DateUTC
12:15 AM,73.4,59.5,62,30.11,10.0,SSE,16.1,23.0,N/A,,Clear,160,2013-08-19 05:15:00
12:35 AM,72.9,59.2,62,30.11,10.0,SSE,15.0,-,N/A,,Clear,160,2013-08-19 05:35:00
12:55 AM,72.7,59.0,62,30.11,10.0,SSE,15.0,-,N/A,,Clear,160,2013-08-19 05:55:00
1:15 AM,71.8,59.0,64,30.12,10.0,SSE,12.7,-,N/A,,Clear,160,2013-08-19 06:15:00
1:35 AM,71.6,58.6,64,30.12,10.0,SSE,11.5,-,N/A,,Clear,160,2013-08-19 06:35:00
1:55 AM,70.9,58.6,65,30.12,10.0,SSE,9.2,-,N/A,,Clear,150,2013-08-19 06:55:00
2:15 AM,70.3,58.6,66,30.12,10.0,South,9.2,-,N/A,,Clear,170,2013-08-19 07:15:00
2:35 AM,69.1,58.6,69,30.11,10.0,South,9.2,-,N/A,,Clear,170,2013-08-19 07:35:00
2:55 AM,68.4,58.5,71,30.11,10.0,South,9.2,-,N/A,,Clear,170,2013-08-19 07:55:00
3:15 AM,68.0,58.3,71,30.10,10.0,South,9.2,-,N/A,,Clear,170,2013-08-19 08:15:00
3:35 AM,68.0,58.1,71,30.09,10.0,South,10.4,-,N/A,,Clear,170,2013-08-19 08:35:00
3:55 AM,67.6,57.9,71,30.08,10.0,South,10.4,-,N/A,,Clear,170,2013-08-19 08:55:00
4:15 AM,66.4,58.1,75,30.08,10.0,South,8.1,-,N/A,,Clear,170,2013-08-19 09:15:00
4:35 AM,65.8,57.9,76,30.08,10.0,South,8.1,-,N/A,,Clear,170,2013-08-19 09:35:00
4:55 AM,66.2,57.7,74,30.07,10.0,South,9.2,-,N/A,,Clear,170,2013-08-19 09:55:00
5:15 AM,66.2,57.6,74,30.07,10.0,South,9.2,-,N/A,,Clear,170,2013-08-19 10:15:00
5:35 AM,64.9,57.6,77,30.06,10.0,South,9.2,-,N/A,,Clear,170,2013-08-19 10:35:00
5:55 AM,64.8,57.6,77,30.06,10.0,South,9.2,-,N/A,,Clear,170,2013-08-19 10:55:00
6:15 AM,64.0,57.6,79,30.06,10.0,South,9.2,-,N/A,,Clear,170,2013-08-19 11:15:00
6:35 AM,63.5,57.6,81,30.05,10.0,South,10.4,-,N/A,,Clear,170,2013-08-19 11:35:00
6:55 AM,62.8,57.7,84,30.06,10.0,South,8.1,-,N/A,,Clear,180,2013-08-19 11:55:00
7:15 AM,61.7,57.7,87,30.06,10.0,South,8.1,-,N/A,,Clear,170,2013-08-19 12:15:00
7:35 AM,62.1,58.1,87,30.07,10.0,SSE,8.1,-,N/A,,Clear,160,2013-08-19 12:35:00
7:55 AM,63.7,58.5,83,30.07,10.0,SSE,6.9,-,N/A,,Clear,160,2013-08-19 12:55:00
8:15 AM,65.5,58.5,78,30.07,10.0,South,6.9,-,N/A,,Clear,170,2013-08-19 13:15:00
8:35 AM,67.1,59.0,75,30.07,10.0,South,6.9,-,N/A,,Clear,170,2013-08-19 13:35:00
8:55 AM,68.4,59.0,72,30.08,10.0,South,8.1,-,N/A,,Clear,170,2013-08-19 13:55:00
9:15 AM,70.5,59.7,69,30.08,10.0,South,6.9,-,N/A,,Clear,190,2013-08-19 14:15:00
9:35 AM,72.3,60.3,66,30.09,10.0,South,4.6,-,N/A,,Clear,190,2013-08-19 14:35:00
9:55 AM,73.2,59.7,63,30.10,10.0,South,3.5,-,N/A,,Clear,190,2013-08-19 14:55:00
10:15 AM,74.3,59.9,61,30.10,10.0,SSE,3.5,-,N/A,,Clear,160,2013-08-19 15:15:00
10:35 AM,75.4,60.3,59,30.10,10.0,SSE,4.6,-,N/A,,Clear,160,2013-08-19 15:35:00
10:55 AM,76.6,60.4,57,30.10,10.0,SSW,4.6,-,N/A,,Clear,200,2013-08-19 15:55:00
11:15 AM,77.2,59.2,54,30.10,10.0,SSW,3.5,-,N/A,,Clear,210,2013-08-19 16:15:00
11:35 AM,77.9,59.9,54,30.10,10.0,South,4.6,-,N/A,,Clear,190,2013-08-19 16:35:00
11:55 AM,79.0,61.2,54,30.10,10.0,SE,8.1,-,N/A,,Clear,140,2013-08-19 16:55:00
12:15 PM,79.9,60.3,51,30.10,10.0,South,4.6,-,N/A,,Clear,190,2013-08-19 17:15:00
12:35 PM,80.2,59.9,50,30.09,10.0,SSE,4.6,-,N/A,,Clear,160,2013-08-19 17:35:00
12:55 PM,82.2,60.1,47,30.08,10.0,SSE,8.1,-,N/A,,Clear,160,2013-08-19 17:55:00
1:15 PM,84.2,59.5,43,30.08,10.0,SSE,9.2,-,N/A,,Clear,150,2013-08-19 18:15:00
1:35 PM,85.1,59.4,42,30.08,10.0,SSW,4.6,-,N/A,,Clear,200,2013-08-19 18:35:00
1:55 PM,86.4,59.5,40,30.07,10.0,South,4.6,-,N/A,,Clear,170,2013-08-19 18:55:00
2:15 PM,87.8,59.2,38,30.07,10.0,SSE,6.9,-,N/A,,Clear,150,2013-08-19 19:15:00
2:35 PM,88.9,59.7,37,30.06,10.0,South,13.8,17.3,N/A,,Clear,170,2013-08-19 19:35:00
2:55 PM,89.8,58.6,35,30.06,10.0,South,9.2,-,N/A,,Clear,180,2013-08-19 19:55:00
3:15 PM,90.1,59.0,35,30.05,10.0,SSE,9.2,-,N/A,,Clear,150,2013-08-19 20:15:00
3:35 PM,90.5,59.5,35,30.04,10.0,South,5.8,-,N/A,,Clear,170,2013-08-19 20:35:00
3:55 PM,91.0,59.4,34,30.03,10.0,ESE,11.5,18.4,N/A,,Clear,120,2013-08-19 20:55:00
4:15 PM,91.4,59.4,34,30.03,10.0,SE,11.5,16.1,N/A,,Clear,140,2013-08-19 21:15:00
4:35 PM,91.6,57.9,32,30.02,10.0,SSE,6.9,17.3,N/A,,Clear,150,2013-08-19 21:35:00
4:55 PM,91.6,58.8,33,30.02,10.0,SSE,9.2,17.3,N/A,,Clear,150,2013-08-19 21:55:00
5:15 PM,91.8,59.4,34,30.02,10.0,SSE,10.4,-,N/A,,Clear,150,2013-08-19 22:15:00
5:35 PM,91.4,59.7,34,30.01,10.0,SE,15.0,-,N/A,,Clear,130,2013-08-19 22:35:00
5:55 PM,91.0,60.1,35,30.01,10.0,SE,11.5,-,N/A,,Clear,140,2013-08-19 22:55:00
6:15 PM,90.1,60.8,37,30.01,10.0,SE,15.0,20.7,N/A,,Clear,130,2013-08-19 23:15:00
6:35 PM,88.9,62.6,41,30.01,10.0,SE,17.3,21.9,N/A,,Clear,130,2013-08-19 23:35:00
6:55 PM,87.8,62.6,43,30.01,10.0,ESE,16.1,23.0,N/A,,Clear,120,2013-08-19 23:55:00
7:15 PM,86.5,62.2,44,30.01,10.0,SE,15.0,23.0,N/A,,Clear,130,2013-08-20 00:15:00
7:35 PM,85.5,61.5,44,30.02,10.0,SE,12.7,-,N/A,,Clear,130,2013-08-20 00:35:00
7:55 PM,83.3,61.7,48,30.02,10.0,ESE,11.5,-,N/A,,Clear,120,2013-08-20 00:55:00
8:15 PM,82.2,60.8,48,30.02,10.0,SE,11.5,-,N/A,,Clear,130,2013-08-20 01:15:00
8:35 PM,81.1,60.1,49,30.03,10.0,SE,12.7,-,N/A,,Clear,130,2013-08-20 01:35:00
8:55 PM,79.5,60.1,51,30.03,10.0,ESE,10.4,-,N/A,,Clear,120,2013-08-20 01:55:00
9:15 PM,78.3,61.2,56,30.04,10.0,ESE,12.7,-,N/A,,Clear,120,2013-08-20 02:15:00
9:35 PM,77.4,61.2,57,30.04,10.0,ESE,12.7,-,N/A,,Clear,120,2013-08-20 02:35:00
9:55 PM,76.6,61.0,58,30.05,10.0,ESE,12.7,-,N/A,,Clear,120,2013-08-20 02:55:00
10:15 PM,76.1,61.0,59,30.06,10.0,SE,12.7,-,N/A,,Clear,130,2013-08-20 03:15:00
10:35 PM,74.5,61.2,63,30.07,10.0,SE,9.2,-,N/A,,Clear,130,2013-08-20 03:35:00
10:55 PM,74.1,60.8,63,30.07,10.0,SE,10.4,-,N/A,,Clear,140,2013-08-20 03:55:00
11:15 PM,74.3,60.8,63,30.08,10.0,SSE,8.1,-,N/A,,Clear,150,2013-08-20 04:15:00
11:35 PM,72.7,61.2,67,30.09,10.0,SSE,6.9,-,N/A,,Clear,150,2013-08-20 04:35:00
11:55 PM,70.5,61.2,72,30.09,10.0,SSE,8.1,-,N/A,,Clear,160,2013-08-20 04:55:00